Flag for Germany Weather past 2 weeks in Hamm, North Rhine-Westphalia, Germany

Now
41 °F

Passing clouds.


Feels Like: 37 °F
Forecast: 35 / 54 °F
Wind: 6 mph from Northwest

Location: Dortmund / Wickede

Current Time: Mar 27, 2015 at 11:51:25 PM

Latest Report: Mar 27, 2015 at 10:50 PM


Visibility: N/A

Pressure: 30.18 "Hg

Humidity: 76%

Dew point: 34 °F

Location of HammLocation

Historic Weather in Hamm — Graph

°F

Hamm temperature yesterday

Maximum temperature yesterday: 48 °F (at 2:50 PM)
Minimum temperature yesterday: 39 °F (at 5:20 AM)
Average temperature yesterday: 42 °F

Past Weeks' High & Low Weather Summary

 TemperatureHumidityPressure
High61 °F (Mar 17, 2:50 PM)93% (Mar 14, 7:20 PM)30.36 "Hg (Mar 14, 7:20 PM)
Low28 °F (Mar 23, 5:20 AM)39% (Mar 17, 3:20 PM)29.62 "Hg (Mar 25, 5:50 AM)
Average43 °F74%30.11 "Hg
* Reported Mar 12 10:20 PM — Mar 27 10:20 PM, Hamm, Weather by CustomWeather, © 2015

Note: Actual official high and low records may vary slightly from our data, if they occured in-between our weather recording intervals... More about our weather records

Advertising

Hamm weather history for previous 24 hours

 ConditionsComfort  
Time TempWeatherWind HumidityBarometerVisibility
10:20 PM
Fri, Mar 27
43 °FPassing clouds.6 mph71%30.18 "HgN/A
9:50 PM43 °FPassing clouds.7 mph71%30.18 "HgN/A
9:20 PM43 °FPassing clouds.6 mph71%30.18 "HgN/A
8:50 PM43 °FPassing clouds.8 mph71%30.18 "HgN/A
8:20 PM43 °FPassing clouds.7 mph71%30.15 "HgN/A
7:50 PM45 °FPassing clouds.7 mph66%30.15 "HgN/A
7:20 PM43 °FPassing clouds.7 mph76%30.12 "HgN/A
6:50 PM43 °FPartly sunny.9 mph76%30.12 "HgN/A
6:20 PM45 °FScattered showers. Broken clouds.7 mph71%30.12 "HgN/A
5:50 PM45 °FScattered showers. Partly sunny.9 mph71%30.09 "HgN/A
5:20 PM45 °FSprinkles. Partly sunny.14 mph71%30.09 "HgN/A
4:50 PM45 °FScattered showers. Partly sunny.10 mph71%30.07 "HgN/A
4:20 PM43 °FSprinkles. Partly sunny.15 mph76%30.07 "HgN/A
3:50 PM46 °FScattered showers. Partly sunny.12 mph66%30.04 "HgN/A
3:20 PM45 °FSprinkles. Partly sunny.13 mph76%30.04 "HgN/A
2:50 PM46 °FPartly sunny.14 mph66%30.04 "HgN/A
2:20 PM46 °FPartly sunny.12 mph66%30.01 "HgN/A
1:50 PM45 °FBroken clouds.15 mph76%30.01 "HgN/A
1:20 PM45 °FPartly sunny.16 mph71%30.01 "HgN/A
12:50 PM45 °FPartly sunny.14 mph81%30.01 "HgN/A
12:20 PM41 °FSprinkles. Broken clouds.13 mph87%30.01 "Hg6 mi
11:50 AM43 °FLight rain. Partly sunny.10 mph81%29.98 "HgN/A
11:20 AM43 °FPartly sunny.16 mph81%29.98 "HgN/A
10:50 AM43 °FPartly sunny.13 mph81%29.95 "HgN/A
10:20 AM41 °FLight rain. Partly sunny.12 mph81%29.95 "HgN/A
9:50 AM41 °FBroken clouds.10 mph81%29.95 "HgN/A
9:20 AM41 °FLight rain. Broken clouds.14 mph87%29.92 "Hg5 mi
8:50 AM41 °FPartly sunny.16 mph81%29.92 "HgN/A
8:20 AM41 °FPartly sunny.17 mph81%29.89 "HgN/A
7:50 AM41 °FPartly sunny.17 mph81%29.89 "HgN/A
7:20 AM41 °FPartly sunny.15 mph81%29.89 "HgN/A
6:50 AM41 °FLight rain. Partly sunny.15 mph81%29.86 "HgN/A
6:20 AM41 °FPartly sunny.14 mph81%29.86 "HgN/A
5:50 AM41 °FSprinkles. Passing clouds.15 mph81%29.83 "HgN/A
5:20 AM41 °FLight rain. Passing clouds.15 mph81%29.83 "HgN/A
Weather by CustomWeather, © 2015

See weather overviewHow to use our weather pages